When you browse on this site, cookies collect data to enhance your experience and personalize the content and advertising you see.
Visit our Privacy Policy to learn more. By continuing to use the site, you agree to this use of cookies and data.
  • Em Portugal
  • Lista de países
  • Para 7 dias
  • Temperatura da água
  • Mapa do tempo
  • Widgets de tempo
  • user-avatar
    Iniciar Sessão

    Previsão horária em Mayrhofen

    Hoje, 4 Junho, Quinta-feira

    Tempo Temperatura Precipitação Vento Pressão Humidade
    00:00 +6°C° 0 mm 2 m/s 609 mmHg 89%
    01:00 +5°C° 0 mm 2 m/s 609 mmHg 91%
    02:00 +5°C° 0 mm 2 m/s 608 mmHg 92%
    03:00 +5°C° 0 mm 2 m/s 608 mmHg 93%
    04:00 +5°C° 0 mm 2 m/s 608 mmHg 93%
    05:00 +6°C° 0.1 mm 2 m/s 608 mmHg 91%
    06:00 +7°C° 0.1 mm 2 m/s 608 mmHg 88%
    07:00 +8°C° 0 mm 2 m/s 608 mmHg 86%
    08:00 +9°C° 0.2 mm 2 m/s 608 mmHg 83%
    09:00 +9°C° 0.2 mm 2 m/s 609 mmHg 80%
    10:00 +10°C° 0.2 mm 2 m/s 609 mmHg 77%
    11:00 +10°C° 0.3 mm 2 m/s 608 mmHg 77%
    12:00 +10°C° 0.3 mm 3 m/s 608 mmHg 78%
    13:00 +10°C° 0.3 mm 3 m/s 608 mmHg 78%
    14:00 +10°C° 0.3 mm 3 m/s 608 mmHg 80%
    15:00 +9°C° 0.3 mm 3 m/s 607 mmHg 82%
    16:00 +9°C° 0.3 mm 2 m/s 607 mmHg 83%
    17:00 +8°C° 0.2 mm 2 m/s 607 mmHg 86%
    18:00 +8°C° 0.2 mm 2 m/s 607 mmHg 88%
    19:00 +7°C° 0.2 mm 2 m/s 606 mmHg 91%
    20:00 +8°C° 0.9 mm 1 m/s 606 mmHg 93%
    21:00 +7°C° 0.9 mm 1 m/s 606 mmHg 95%
    22:00 +7°C° 0.9 mm 1 m/s 606 mmHg 98%
    23:00 +6°C° 2.9 mm 1 m/s 605 mmHg 98%

    Amanhã, 5 Junho, Sexta-feira

    Tempo Temperatura Precipitação Vento Pressão Humidade
    00:00 +4°C° 2.9 mm 2 m/s 605 mmHg 98%
    01:00 +3°C° 2.9 mm 2 m/s 604 mmHg 98%
    02:00 +3°C° 2 mm 2 m/s 604 mmHg 98%
    03:00 +4°C° 2 mm 1 m/s 604 mmHg 98%
    04:00 +3°C° 2 mm 1 m/s 604 mmHg 98%
    05:00 +4°C° 0.1 mm 1 m/s 605 mmHg 97%
    06:00 +4°C° 0.1 mm 1 m/s 605 mmHg 96%
    07:00 +5°C° 0.1 mm 1 m/s 606 mmHg 95%
    08:00 +5°C° 0.3 mm 1 m/s 606 mmHg 95%
    09:00 +5°C° 0.3 mm 1 m/s 606 mmHg 95%
    10:00 +6°C° 0.3 mm 1 m/s 606 mmHg 96%
    11:00 +6°C° 0.3 mm 1 m/s 607 mmHg 93%
    12:00 +7°C° 0.3 mm 1 m/s 607 mmHg 91%
    13:00 +7°C° 0.3 mm 1 m/s 607 mmHg 89%
    14:00 +8°C° 0.1 mm 1 m/s 608 mmHg 84%
    15:00 +9°C° 0.1 mm 1 m/s 608 mmHg 79%
    16:00 +10°C° 0.1 mm 1 m/s 608 mmHg 73%
    17:00 +10°C° 0.1 mm 1 m/s 608 mmHg 77%
    18:00 +8°C° 0.1 mm 0 m/s 609 mmHg 81%
    19:00 +8°C° 0.1 mm 0 m/s 609 mmHg 85%
    20:00 +6°C° 0 mm 0 m/s 608 mmHg 87%
    21:00 +6°C° 0 mm 1 m/s 608 mmHg 90%
    22:00 +4°C° 0 mm 1 m/s 608 mmHg 92%
    23:00 +4°C° 0 mm 1 m/s 609 mmHg 92%

    Depois de amanhã, 6 Junho, Sábado

    Tempo Temperatura Precipitação Vento Pressão Humidade
    00:00 +4°C° 0 mm 1 m/s 609 mmHg 92%
    01:00 +5°C° 0 mm 1 m/s 609 mmHg 92%
    02:00 +4°C° 0 mm 1 m/s 609 mmHg 92%
    03:00 +4°C° 0 mm 1 m/s 609 mmHg 93%
    04:00 +4°C° 0 mm 1 m/s 609 mmHg 93%
    05:00 +6°C° 0 mm 1 m/s 610 mmHg 91%
    06:00 +7°C° 0 mm 1 m/s 610 mmHg 89%
    07:00 +8°C° 0 mm 2 m/s 611 mmHg 87%
    08:00 +9°C° 0.1 mm 2 m/s 612 mmHg 84%
    09:00 +10°C° 0.1 mm 2 m/s 612 mmHg 81%
    10:00 +12°C° 0.1 mm 2 m/s 613 mmHg 77%
    11:00 +13°C° 0.4 mm 2 m/s 613 mmHg 76%
    12:00 +13°C° 0.4 mm 2 m/s 613 mmHg 75%
    13:00 +14°C° 0.4 mm 2 m/s 613 mmHg 73%
    14:00 +13°C° 0.8 mm 2 m/s 613 mmHg 77%
    15:00 +13°C° 0.8 mm 2 m/s 612 mmHg 81%
    16:00 +12°C° 0.8 mm 2 m/s 612 mmHg 85%
    17:00 +10°C° 0.8 mm 2 m/s 612 mmHg 89%
    18:00 +9°C° 0.8 mm 2 m/s 612 mmHg 93%
    19:00 +9°C° 0.8 mm 1 m/s 612 mmHg 96%
    20:00 +9°C° 0.8 mm 1 m/s 612 mmHg 97%
    21:00 +8°C° 0.8 mm 1 m/s 612 mmHg 98%
    22:00 +7°C° 0.8 mm 1 m/s 612 mmHg 98%
    23:00 +7°C° 0.5 mm 1 m/s 612 mmHg 98%

    7 Junho, Domingo

    Tempo Temperatura Precipitação Vento Pressão Humidade
    00:00 +7°C° 0.5 mm 1 m/s 612 mmHg 98%
    01:00 +7°C° 0.5 mm 1 m/s 612 mmHg 99%
    02:00 +7°C° 0.5 mm 1 m/s 612 mmHg 99%
    03:00 +7°C° 0.5 mm 1 m/s 612 mmHg 99%
    04:00 +7°C° 0.5 mm 1 m/s 612 mmHg 99%
    05:00 +7°C° 0.7 mm 1 m/s 612 mmHg 98%
    06:00 +7°C° 0.7 mm 1 m/s 612 mmHg 98%
    07:00 +7°C° 0.7 mm 1 m/s 612 mmHg 98%
    08:00 +7°C° 1.4 mm 1 m/s 612 mmHg 98%
    09:00 +7°C° 1.4 mm 1 m/s 613 mmHg 98%
    10:00 +7°C° 1.4 mm 1 m/s 613 mmHg 97%
    11:00 +7°C° 0.9 mm 1 m/s 613 mmHg 97%
    12:00 +7°C° 0.9 mm 1 m/s 613 mmHg 97%
    13:00 +7°C° 0.9 mm 1 m/s 613 mmHg 96%
    14:00 +7°C° 1.7 mm 1 m/s 613 mmHg 97%
    15:00 +7°C° 1.7 mm 1 m/s 613 mmHg 97%
    16:00 +7°C° 1.7 mm 1 m/s 613 mmHg 98%
    17:00 +6°C° 1.2 mm 1 m/s 612 mmHg 98%
    18:00 +6°C° 1.2 mm 1 m/s 612 mmHg 98%
    19:00 +6°C° 1.2 mm 1 m/s 612 mmHg 98%
    20:00 +6°C° 2.4 mm 1 m/s 612 mmHg 98%
    21:00 +6°C° 2.4 mm 1 m/s 612 mmHg 98%
    22:00 +5°C° 2.4 mm 0 m/s 612 mmHg 98%
    23:00 +5°C° 1.4 mm 0 m/s 612 mmHg 98%

    8 Junho, Segunda-feira

    Tempo Temperatura Precipitação Vento Pressão Humidade
    00:00 +5°C° 1.4 mm 0 m/s 612 mmHg 98%
    01:00 +5°C° 1.4 mm 0 m/s 612 mmHg 98%
    02:00 +5°C° 1.5 mm 0 m/s 612 mmHg 98%
    03:00 +6°C° 1.5 mm 1 m/s 611 mmHg 98%
    04:00 +6°C° 1.5 mm 1 m/s 611 mmHg 98%
    05:00 +6°C° 1.5 mm 1 m/s 611 mmHg 98%
    06:00 +6°C° 1.5 mm 1 m/s 612 mmHg 98%
    07:00 +6°C° 1.5 mm 1 m/s 612 mmHg 98%
    08:00 +5°C° 2.4 mm 1 m/s 612 mmHg 98%
    09:00 +5°C° 2.4 mm 1 m/s 612 mmHg 98%
    10:00 +5°C° 2.4 mm 1 m/s 612 mmHg 98%
    11:00 +5°C° 0.8 mm 1 m/s 612 mmHg 97%
    12:00 +5°C° 0.8 mm 1 m/s 612 mmHg 97%
    13:00 +5°C° 0.8 mm 1 m/s 612 mmHg 97%
    14:00 +6°C° 0.2 mm 1 m/s 612 mmHg 96%
    15:00 +6°C° 0.2 mm 1 m/s 612 mmHg 95%
    16:00 +7°C° 0.2 mm 1 m/s 613 mmHg 94%
    17:00 +7°C° 0.1 mm 1 m/s 613 mmHg 94%
    18:00 +7°C° 0.1 mm 1 m/s 613 mmHg 95%
    19:00 +6°C° 0.1 mm 1 m/s 613 mmHg 95%
    20:00 +6°C° 0.1 mm 1 m/s 613 mmHg 96%
    21:00 +6°C° 0.1 mm 1 m/s 613 mmHg 97%
    22:00 +5°C° 0.1 mm 1 m/s 613 mmHg 98%
    23:00 +5°C° 0.2 mm 1 m/s 613 mmHg 97%

    9 Junho, Terça-feira

    Tempo Temperatura Precipitação Vento Pressão Humidade
    00:00 +5°C° 0.2 mm 1 m/s 613 mmHg 97%
    01:00 +5°C° 0.2 mm 1 m/s 614 mmHg 97%
    02:00 +5°C° 0.1 mm 1 m/s 614 mmHg 97%
    03:00 +5°C° 0.1 mm 1 m/s 614 mmHg 97%
    04:00 +5°C° 0.1 mm 1 m/s 614 mmHg 97%
    05:00 +5°C° 0.1 mm 1 m/s 614 mmHg 96%
    06:00 +6°C° 0.1 mm 1 m/s 614 mmHg 95%
    07:00 +6°C° 0.1 mm 1 m/s 615 mmHg 94%
    08:00 +8°C° 0.1 mm 1 m/s 615 mmHg 90%
    09:00 +9°C° 0.1 mm 1 m/s 615 mmHg 85%
    10:00 +10°C° 0.1 mm 1 m/s 616 mmHg 81%
    11:00 +10°C° 0.2 mm 1 m/s 616 mmHg 79%
    12:00 +11°C° 0.2 mm 1 m/s 616 mmHg 77%
    13:00 +12°C° 0.2 mm 1 m/s 616 mmHg 75%
    14:00 +12°C° 0.5 mm 1 m/s 616 mmHg 76%
    15:00 +12°C° 0.5 mm 1 m/s 616 mmHg 77%
    16:00 +12°C° 0.5 mm 1 m/s 616 mmHg 78%
    17:00 +11°C° 0.6 mm 1 m/s 616 mmHg 82%
    18:00 +10°C° 0.6 mm 1 m/s 616 mmHg 87%
    19:00 +10°C° 0.6 mm 1 m/s 616 mmHg 92%
    20:00 +9°C° 0.4 mm 1 m/s 616 mmHg 94%
    21:00 +8°C° 0.4 mm 1 m/s 616 mmHg 95%
    22:00 +6°C° 0.4 mm 0 m/s 616 mmHg 97%
    23:00 +6°C° 0.4 mm 0 m/s 617 mmHg 97%
    Mostrar mais